• In Deutschland
  • Länderverzeichnis
  • Für 7 Tage
  • Wassertemperatur
  • Satellitenkarten
  • Wetterkarte
  • Widgets
  • user-avatar
    Anmelden

    Stündliche Wetter Abstatt

    Heute, 20 September, Donnerstag

    Zeit Temperatur Niederschläge Wind Luftdruck Luftfeuchtigkeit
    00:00 +20°C° 0 mm 1 m/S 742 mmHg 74%
    01:00 +20°C° 0 mm 1 m/S 742 mmHg 68%
    02:00 +20°C° 0 mm 1 m/S 742 mmHg 69%
    03:00 +20°C° 0 mm 1 m/S 742 mmHg 70%
    04:00 +19°C° 0 mm 1 m/S 742 mmHg 71%
    05:00 +19°C° 0 mm 1 m/S 742 mmHg 72%
    06:00 +19°C° 0 mm 1 m/S 742 mmHg 72%
    07:00 +20°C° 0 mm 1 m/S 742 mmHg 70%
    08:00 +22°C° 0 mm 1 m/S 742 mmHg 64%
    09:00 +24°C° 0 mm 1 m/S 742 mmHg 59%
    10:00 +26°C° 0 mm 1 m/S 742 mmHg 54%
    11:00 +27°C° 0 mm 1 m/S 742 mmHg 50%
    12:00 +28°C° 0 mm 2 m/S 741 mmHg 47%
    13:00 +29°C° 0 mm 2 m/S 741 mmHg 44%
    14:00 +29°C° 0 mm 2 m/S 741 mmHg 44%
    15:00 +29°C° 0 mm 2 m/S 740 mmHg 43%
    16:00 +29°C° 0 mm 2 m/S 740 mmHg 43%
    17:00 +27°C° 0 mm 1 m/S 739 mmHg 49%
    18:00 +25°C° 0 mm 1 m/S 739 mmHg 56%
    19:00 +20°C° 0 mm 0 m/S 739 mmHg 62%
    20:00 +22°C° 0 mm 1 m/S 739 mmHg 65%
    21:00 +21°C° 0 mm 1 m/S 739 mmHg 67%
    22:00 +21°C° 0 mm 1 m/S 738 mmHg 69%
    23:00 +20°C° 0 mm 2 m/S 738 mmHg 71%

    Morgen, 21 September, Freitag

    Zeit Temperatur Niederschläge Wind Luftdruck Luftfeuchtigkeit
    00:00 +19°C° 0 mm 2 m/S 738 mmHg 74%
    01:00 +19°C° 0 mm 2 m/S 737 mmHg 76%
    02:00 +18°C° 0 mm 2 m/S 737 mmHg 77%
    03:00 +18°C° 0 mm 2 m/S 737 mmHg 78%
    04:00 +18°C° 0 mm 2 m/S 736 mmHg 78%
    05:00 +18°C° 0 mm 2 m/S 736 mmHg 76%
    06:00 +18°C° 0 mm 3 m/S 736 mmHg 74%
    07:00 +19°C° 0 mm 3 m/S 735 mmHg 72%
    08:00 +21°C° 0 mm 4 m/S 735 mmHg 65%
    09:00 +23°C° 0 mm 6 m/S 735 mmHg 58%
    10:00 +26°C° 0 mm 7 m/S 735 mmHg 51%
    11:00 +26°C° 0 mm 7 m/S 735 mmHg 49%
    12:00 +26°C° 0 mm 7 m/S 735 mmHg 47%
    13:00 +26°C° 0 mm 7 m/S 735 mmHg 44%
    14:00 +23°C° 0.9 mm 7 m/S 736 mmHg 55%
    15:00 +21°C° 0.9 mm 7 m/S 736 mmHg 66%
    16:00 +18°C° 0.9 mm 7 m/S 736 mmHg 77%
    17:00 +16°C° 0.4 mm 6 m/S 737 mmHg 75%
    18:00 +15°C° 0.4 mm 5 m/S 738 mmHg 73%
    19:00 +14°C° 0.4 mm 5 m/S 739 mmHg 72%
    20:00 +14°C° 0 mm 4 m/S 740 mmHg 69%
    21:00 +13°C° 0 mm 4 m/S 741 mmHg 66%
    22:00 +13°C° 0 mm 3 m/S 742 mmHg 63%
    23:00 +12°C° 0 mm 3 m/S 742 mmHg 63%

    übermorgen, 22 September, Samstag

    Zeit Temperatur Niederschläge Wind Luftdruck Luftfeuchtigkeit
    00:00 +12°C° 0 mm 3 m/S 743 mmHg 63%
    01:00 +13°C° 0 mm 2 m/S 743 mmHg 63%
    02:00 +12°C° 0 mm 2 m/S 743 mmHg 64%
    03:00 +12°C° 0 mm 2 m/S 743 mmHg 65%
    04:00 +12°C° 0 mm 2 m/S 744 mmHg 66%
    05:00 +12°C° 0 mm 2 m/S 744 mmHg 67%
    06:00 +12°C° 0 mm 2 m/S 744 mmHg 68%
    07:00 +10°C° 0 mm 2 m/S 744 mmHg 69%
    08:00 +12°C° 0 mm 3 m/S 744 mmHg 64%
    09:00 +13°C° 0 mm 3 m/S 744 mmHg 58%
    10:00 +15°C° 0 mm 4 m/S 744 mmHg 53%
    11:00 +17°C° 0 mm 4 m/S 744 mmHg 49%
    12:00 +18°C° 0 mm 4 m/S 744 mmHg 46%
    13:00 +18°C° 0 mm 4 m/S 744 mmHg 42%
    14:00 +18°C° 0 mm 4 m/S 743 mmHg 42%
    15:00 +19°C° 0 mm 3 m/S 743 mmHg 42%
    16:00 +19°C° 0 mm 3 m/S 743 mmHg 41%
    17:00 +18°C° 0 mm 3 m/S 743 mmHg 45%
    18:00 +16°C° 0 mm 2 m/S 743 mmHg 49%
    19:00 +15°C° 0 mm 2 m/S 743 mmHg 52%
    20:00 +15°C° 0 mm 2 m/S 743 mmHg 55%
    21:00 +14°C° 0 mm 2 m/S 743 mmHg 58%
    22:00 +14°C° 0 mm 2 m/S 743 mmHg 61%
    23:00 +14°C° 0.2 mm 2 m/S 743 mmHg 66%

    23 September, Sonntag

    Zeit Temperatur Niederschläge Wind Luftdruck Luftfeuchtigkeit
    00:00 +13°C° 0.2 mm 2 m/S 742 mmHg 72%
    01:00 +13°C° 0.2 mm 2 m/S 742 mmHg 77%
    02:00 +13°C° 0.1 mm 2 m/S 741 mmHg 78%
    03:00 +13°C° 0.1 mm 2 m/S 741 mmHg 79%
    04:00 +13°C° 0.1 mm 3 m/S 740 mmHg 81%
    05:00 +13°C° 0.3 mm 3 m/S 740 mmHg 77%
    06:00 +14°C° 0.3 mm 4 m/S 739 mmHg 74%
    07:00 +14°C° 0.3 mm 4 m/S 739 mmHg 71%
    08:00 +15°C° 0.5 mm 5 m/S 738 mmHg 74%
    09:00 +16°C° 0.5 mm 5 m/S 738 mmHg 76%
    10:00 +17°C° 0.5 mm 6 m/S 738 mmHg 79%
    11:00 +20°C° 0.3 mm 6 m/S 737 mmHg 74%
    12:00 +22°C° 0.3 mm 7 m/S 737 mmHg 69%
    13:00 +24°C° 0.3 mm 8 m/S 736 mmHg 64%
    14:00 +24°C° 0 mm 8 m/S 736 mmHg 63%
    15:00 +24°C° 0 mm 8 m/S 735 mmHg 62%
    16:00 +24°C° 0 mm 8 m/S 735 mmHg 61%
    17:00 +23°C° 0.3 mm 7 m/S 734 mmHg 67%
    18:00 +22°C° 0.3 mm 7 m/S 733 mmHg 73%
    19:00 +20°C° 0.3 mm 7 m/S 733 mmHg 79%
    20:00 +20°C° 1 mm 8 m/S 732 mmHg 80%
    21:00 +18°C° 1 mm 9 m/S 732 mmHg 81%
    22:00 +18°C° 1 mm 10 m/S 732 mmHg 82%
    23:00 +16°C° 0.5 mm 10 m/S 734 mmHg 82%

    24 September, Montag

    Zeit Temperatur Niederschläge Wind Luftdruck Luftfeuchtigkeit
    00:00 +13°C° 0.5 mm 9 m/S 736 mmHg 82%
    01:00 +11°C° 0.5 mm 9 m/S 738 mmHg 82%
    02:00 +10°C° 0 mm 7 m/S 740 mmHg 80%
    03:00 +9°C° 0 mm 6 m/S 742 mmHg 79%
    04:00 +8°C° 0 mm 5 m/S 745 mmHg 77%
    05:00 +8°C° 0 mm 4 m/S 746 mmHg 78%
    06:00 +8°C° 0 mm 4 m/S 747 mmHg 80%
    07:00 +9°C° 0 mm 3 m/S 749 mmHg 81%
    08:00 +10°C° 0 mm 3 m/S 749 mmHg 75%
    09:00 +11°C° 0 mm 4 m/S 749 mmHg 69%
    10:00 +12°C° 0 mm 4 m/S 750 mmHg 63%
    11:00 +13°C° 0 mm 4 m/S 750 mmHg 57%
    12:00 +14°C° 0 mm 4 m/S 750 mmHg 52%
    13:00 +14°C° 0 mm 4 m/S 750 mmHg 46%
    14:00 +14°C° 0 mm 4 m/S 750 mmHg 46%
    15:00 +14°C° 0 mm 4 m/S 750 mmHg 46%
    16:00 +14°C° 0 mm 4 m/S 750 mmHg 46%
    17:00 +13°C° 0 mm 3 m/S 751 mmHg 50%
    18:00 +12°C° 0 mm 2 m/S 751 mmHg 54%
    19:00 +11°C° 0 mm 1 m/S 751 mmHg 58%
    20:00 +10°C° 0 mm 1 m/S 752 mmHg 61%
    21:00 +10°C° 0 mm 1 m/S 752 mmHg 65%
    22:00 +9°C° 0 mm 1 m/S 753 mmHg 68%
    23:00 +8°C° 0 mm 1 m/S 753 mmHg 70%

    25 September, Dienstag

    Zeit Temperatur Niederschläge Wind Luftdruck Luftfeuchtigkeit
    00:00 +8°C° 0 mm 1 m/S 753 mmHg 73%
    01:00 +7°C° 0 mm 1 m/S 753 mmHg 76%
    02:00 +7°C° 0 mm 1 m/S 753 mmHg 78%
    03:00 +7°C° 0 mm 1 m/S 753 mmHg 80%
    04:00 +6°C° 0 mm 1 m/S 754 mmHg 82%
    05:00 +6°C° 0 mm 1 m/S 754 mmHg 82%
    06:00 +7°C° 0 mm 1 m/S 754 mmHg 81%
    07:00 +7°C° 0 mm 1 m/S 754 mmHg 81%
    08:00 +9°C° 0 mm 1 m/S 754 mmHg 72%
    09:00 +11°C° 0 mm 1 m/S 754 mmHg 62%
    10:00 +13°C° 0 mm 2 m/S 754 mmHg 53%
    11:00 +14°C° 0 mm 2 m/S 754 mmHg 49%
    12:00 +15°C° 0 mm 2 m/S 753 mmHg 44%
    13:00 +16°C° 0 mm 2 m/S 753 mmHg 40%
    14:00 +16°C° 0 mm 2 m/S 753 mmHg 40%
    15:00 +16°C° 0 mm 2 m/S 752 mmHg 40%
    16:00 +16°C° 0 mm 2 m/S 751 mmHg 41%
    17:00 +15°C° 0 mm 2 m/S 752 mmHg 47%
    18:00 +13°C° 0 mm 2 m/S 752 mmHg 54%
    19:00 +10°C° 0 mm 2 m/S 752 mmHg 60%
    20:00 +10°C° 0 mm 1 m/S 752 mmHg 62%
    21:00 +9°C° 0 mm 1 m/S 752 mmHg 65%
    22:00 +9°C° 0 mm 1 m/S 752 mmHg 67%
    23:00 +8°C° 0 mm 1 m/S 752 mmHg 69%
    Mehr zeigen